EW0013 Weather Reports


time (UTC)temp
C
wind
direction
speed
KPH
gust
KPH
rain 1hr
cm
rain 24hr
cm
rain mn
cm
humidity
%
barometer
mb
20260906222027 30 337 0.0 0.0 0.00 0.00 0.00 38 1014.3
20260906221527 30 337 0.0 0.0 0.00 0.00 0.00 36 1014.3
20260906221031 30 336 0.0 0.0 0.00 0.00 0.00 36 1014.4
20260906220530 31 336 0.0 1.6 0.00 0.00 0.00 36 1014.4
20260906220029 31 337 0.0 6.4 0.00 0.00 0.00 35 1014.5
20260906215534 31 336 1.6 6.4 0.00 0.00 0.00 36 1014.7
20260906215012 31 338 0.0 3.2 0.00 0.00 0.00 34 1014.7
20260906214517 31 338 0.0 4.8 0.00 0.00 0.00 35 1014.8
20260906214015 31 338 1.6 4.8 0.00 0.00 0.00 35 1014.8
20260906213515 31 126 0.0 3.2 0.00 0.00 0.00 35 1014.9
20260906213020 31 129 0.0 1.6 0.00 0.00 0.00 35 1015.0
20260906212522 31 129 0.0 4.8 0.00 0.00 0.00 34 1014.9
20260906212047 31 130 1.6 3.2 0.00 0.00 0.00 36 1015.0
20260906211524 31 132 0.0 1.6 0.00 0.00 0.00 37 1015.1
20260906211029 31 132 0.0 1.6 0.00 0.00 0.00 35 1015.2
20260906210530 31 132 0.0 1.6 0.00 0.00 0.00 36 1015.4
20260906210035 31 132 0.0 1.6 0.00 0.00 0.00 35 1015.6
20260906205514 31 132 0.0 1.6 0.00 0.00 0.00 35 1015.6
20260906205034 31 132 0.0 1.6 0.00 0.00 0.00 36 1015.5
20260906204518 31 132 0.0 3.2 0.00 0.00 0.00 34 1015.5
20260906204016 31 132 1.6 3.2 0.00 0.00 0.00 33 1015.7
20260906203522 31 135 0.0 3.2 0.00 0.00 0.00 33 1015.7
20260906203043 32 136 0.0 4.8 0.00 0.00 0.00 31 1015.6
20260906202548 32 136 0.0 4.8 0.00 0.00 0.00 32 1015.7
20260906202032 32 121 0.0 3.2 0.00 0.00 0.00 33 1015.8
20260906201531 32 103 0.0 0.0 0.00 0.00 0.00 34 1015.8
20260906201028 31 117 0.0 0.0 0.00 0.00 0.00 36 1015.9
20260906200533 31 127 0.0 0.0 0.00 0.00 0.00 36 1016.0
20260906200038 31 127 0.0 3.2 0.00 0.00 0.00 36 1016.1
20260906195515 31 127 0.0 4.8 0.00 0.00 0.00 36 1016.0
20260906195014 31 127 1.6 4.8 0.00 0.00 0.00 36 1016.0
20260906194513 31 327 0.0 1.6 0.00 0.00 0.00 37 1016.1
20260906194019 31 327 0.0 1.6 0.00 0.00 0.00 37 1016.1
20260906193517 31 327 0.0 4.8 0.00 0.00 0.00 38 1016.2
20260906193044 31 327 0.0 4.8 0.00 0.00 0.00 39 1016.2
20260906192523 31 327 1.6 4.8 0.00 0.00 0.00 39 1016.3
20260906192029 30 327 0.0 0.0 0.00 0.00 0.00 40 1016.5
20260906191527 30 327 0.0 3.2 0.00 0.00 0.00 42 1016.6
20260906191032 30 327 1.6 4.8 0.00 0.00 0.00 40 1016.6
20260906190530 30 326 1.6 4.8 0.00 0.00 0.00 41 1016.6
20260906190036 30 23 0.0 4.8 0.00 0.00 0.00 44 1016.7
20260906185514 30 355 1.6 4.8 0.00 0.00 0.00 42 1016.9
20260906185013 30 345 1.6 4.8 0.00 0.00 0.00 43 1016.9
20260906184539 30 338 0.0 3.2 0.00 0.00 0.00 44 1017.2
20260906184017 30 339 0.0 4.8 0.00 0.00 0.00 45 1017.3
20260906183522 30 339 1.6 4.8 0.00 0.00 0.00 46 1017.4
20260906183020 30 326 0.0 3.2 0.00 0.00 0.00 46 1017.4
20260906182525 30 327 0.0 3.2 0.00 0.00 0.00 44 1017.4
20260906182023 30 327 0.0 4.8 0.00 0.00 0.00 46 1017.6
20260906181550 30 326 1.6 4.8 0.00 0.00 0.00 44 1017.7
20260906181027 30 136 0.0 4.8 0.00 0.00 0.00 46 1017.8
20260906180533 29 136 0.0 4.8 0.00 0.00 0.00 46 1017.9
20260906180032 29 334 0.0 4.8 0.00 0.00 0.00 45 1018.0
20260906175529 29 334 1.6 4.8 0.00 0.00 0.00 46 1018.0
20260906175034 28 271 0.0 0.0 0.00 0.00 0.00 49 1018.1
20260906174532 28 271 0.0 3.2 0.00 0.00 0.00 48 1018.4
20260906174038 28 271 0.0 3.2 0.00 0.00 0.00 48 1018.6
20260906173516 28 271 0.0 1.6 0.00 0.00 0.00 49 1018.7
20260906173015 28 271 0.0 1.6 0.00 0.00 0.00 49 1018.8
20260906172520 28 271 0.0 3.2 0.00 0.00 0.00 50 1018.8
20260906172019 28 273 0.0 3.2 0.00 0.00 0.00 52 1018.8
20260906171544 27 161 0.0 1.6 0.00 0.00 0.00 54 1018.9
20260906171020 27 161 0.0 3.2 0.00 0.00 0.00 55 1018.8
20260906170544 26 161 1.6 3.2 0.00 0.00 0.00 55 1018.8
20260906170029 26 236 0.0 1.6 0.00 0.00 0.00 57 1019.0
20260906165523 26 274 0.0 0.0 0.00 0.00 0.00 59 1019.0
20260906165021 25 274 0.0 1.6 0.00 0.00 0.00 60 1019.1
20260906164546 25 274 0.0 3.2 0.00 0.00 0.00 61 1019.2
20260906164023 24 273 0.0 3.2 0.00 0.00 0.00 62 1019.1
20260906163529 24 271 0.0 3.2 0.00 0.00 0.00 63 1019.2
20260906163027 23 271 0.0 3.2 0.00 0.00 0.00 63 1019.3
20260906162552 23 269 0.0 3.2 0.00 0.00 0.00 65 1019.4
20260906162030 23 269 0.0 4.8 0.00 0.00 0.00 65 1019.2
20260906161516 22 269 1.6 4.8 0.00 0.00 0.00 67 1019.2
20260906161012 22 146 0.0 3.2 0.00 0.00 0.00 69 1019.1
20260906160514 21 279 0.0 3.2 0.00 0.00 0.00 70 1019.2
20260906160021 21 287 0.0 3.2 0.00 0.00 0.00 71 1019.2
20260906155547 21 287 0.0 3.2 0.00 0.00 0.00 72 1019.2
20260906155024 21 287 0.0 3.2 0.00 0.00 0.00 73 1019.2
20260906154544 20 286 0.0 3.2 0.00 0.00 0.00 74 1019.3
20260906154041 20 286 0.0 1.6 0.00 0.00 0.00 75 1019.2
20260906153526 20 286 0.0 1.6 0.00 0.00 0.00 76 1019.2
20260906153025 20 286 0.0 1.6 0.00 0.00 0.00 76 1019.3
20260906152531 20 286 0.0 3.2 0.00 0.00 0.00 77 1019.3
20260906152028 20 286 0.0 3.2 0.00 0.00 0.00 78 1019.4
20260906151526 20 282 0.0 1.6 0.00 0.00 0.00 79 1019.3
20260906151032 19 279 0.0 1.6 0.00 0.00 0.00 79 1019.5
20260906150512 19 279 0.0 1.6 0.00 0.00 0.00 80 1019.5
20260906150017 19 279 0.0 1.6 0.00 0.00 0.00 81 1019.4
20260906145535 19 279 0.0 0.0 0.00 0.00 0.00 82 1019.4
20260906145019 18 279 0.0 1.6 0.00 0.00 0.00 82 1019.5
20260906144517 18 279 0.0 0.0 0.00 0.00 0.00 82 1019.5
20260906144020 18 279 0.0 0.0 0.00 0.00 0.00 83 1019.5
20260906143519 18 279 0.0 3.2 0.00 0.00 0.00 84 1019.5
20260906143025 18 279 1.6 3.2 0.00 0.00 0.00 85 1019.5
20260906142524 18 269 0.0 3.2 0.00 0.00 0.00 85 1019.4
20260906142029 18 269 0.0 0.0 0.00 0.00 0.00 85 1019.4
20260906141547 18 269 0.0 0.0 0.00 0.00 0.00 85 1019.3
20260906141032 17 269 0.0 1.6 0.00 0.00 0.00 85 1019.5
20260906140529 17 269 0.0 1.6 0.00 0.00 0.00 86 1019.3
20260906140036 17 264 0.0 1.6 0.00 0.00 0.00 86 1019.3
20260906135514 17 264 0.0 0.0 0.00 0.00 0.00 86 1019.3
20260906135040 17 264 0.0 0.0 0.00 0.00 0.00 86 1019.2
20260906134517 16 264 0.0 1.6 0.00 0.00 0.00 86 1019.3
20260906134038 16 263 0.0 3.2 0.00 0.00 0.00 86 1019.3
20260906133518 16 263 0.0 3.2 0.00 0.00 0.00 85 1019.3
20260906133017 16 263 0.0 0.0 0.00 0.00 0.00 84 1019.3
20260906132524 16 263 0.0 0.0 0.00 0.00 0.00 83 1019.5
20260906132022 16 263 0.0 0.0 0.00 0.00 0.00 81 1019.3
20260906131547 16 263 0.0 0.0 0.00 0.00 0.00 81 1019.3
20260906131025 16 263 0.0 0.0 0.00 0.00 0.00 79 1019.2
20260906130550 16 263 0.0 0.0 0.00 0.00 0.00 78 1019.2
20260906130028 16 263 0.0 0.0 0.00 0.00 0.00 78 1019.2
20260906125533 16 263 0.0 0.0 0.00 0.00 0.00 78 1019.3
20260906125031 16 263 0.0 0.0 0.00 0.00 0.00 77 1019.1
20260906124537 16 263 0.0 0.0 0.00 0.00 0.00 77 1019.1
20260906124016 16 263 0.0 0.0 0.00 0.00 0.00 76 1019.1
20260906123514 16 263 0.0 0.0 0.00 0.00 0.00 75 1019.0
20260906123041 16 263 0.0 0.0 0.00 0.00 0.00 75 1019.0
20260906122517 16 263 0.0 0.0 0.00 0.00 0.00 75 1019.1
20260906122043 16 263 0.0 0.0 0.00 0.00 0.00 75 1019.0
20260906121520 16 263 0.0 0.0 0.00 0.00 0.00 75 1019.0
20260906121025 16 263 0.0 0.0 0.00 0.00 0.00 74 1018.8
20260906120523 16 263 0.0 0.0 0.00 0.00 0.00 73 1018.7
20260906120029 16 263 0.0 0.0 0.00 0.00 0.00 73 1018.7
20260906115527 16 263 0.0 0.0 0.00 0.00 0.00 73 1018.9
20260906115025 16 263 0.0 0.0 0.00 0.00 0.00 72 1018.8
20260906114530 17 263 0.0 0.0 0.00 0.00 0.00 72 1018.8
20260906114029 17 263 0.0 0.0 0.00 0.00 0.00 72 1018.8
20260906113535 17 263 0.0 0.0 0.00 0.00 0.00 71 1018.9
20260906113013 17 263 0.0 0.0 0.00 0.00 0.00 71 1018.9
20260906112512 17 263 0.0 0.0 0.00 0.00 0.00 70 1018.8
20260906112012 17 263 0.0 0.0 0.00 0.00 0.00 70 1018.6
20260906111537 17 263 0.0 0.0 0.00 0.00 0.00 70 1018.6
20260906111023 17 263 0.0 0.0 0.00 0.00 0.00 69 1018.6
20260906110521 17 263 0.0 0.0 0.00 0.00 0.00 68 1018.6
20260906110020 17 263 0.0 0.0 0.00 0.00 0.00 68 1018.6
20260906105522 17 263 0.0 0.0 0.00 0.00 0.00 67 1018.6
20260906105027 17 263 0.0 0.0 0.00 0.00 0.00 67 1018.8
20260906104546 18 263 0.0 0.0 0.00 0.00 0.00 66 1018.7
20260906104030 18 263 0.0 0.0 0.00 0.00 0.00 66 1018.7
20260906103536 18 263 0.0 0.0 0.00 0.00 0.00 66 1018.7
20260906103014 18 263 0.0 0.0 0.00 0.00 0.00 66 1018.8
20260906102513 18 263 0.0 0.0 0.00 0.00 0.00 65 1018.7
20260906102039 18 263 0.0 0.0 0.00 0.00 0.00 66 1018.6
20260906101517 18 263 0.0 0.0 0.00 0.00 0.00 65 1018.7
20260906101017 18 263 0.0 0.0 0.00 0.00 0.00 65 1018.6
20260906100523 18 263 0.0 0.0 0.00 0.00 0.00 64 1018.6
20260906100022 19 263 0.0 0.0 0.00 0.00 0.00 63 1018.6
20260906095520 19 263 0.0 0.0 0.00 0.00 0.00 63 1018.5
20260906095017 19 263 0.0 0.0 0.00 0.00 0.00 63 1018.6
20260906094556 19 263 0.0 0.0 0.00 0.00 0.00 62 1018.7
20260906094027 19 263 0.0 0.0 0.00 0.00 0.00 62 1018.7
20260906093538 19 263 0.0 0.0 0.00 0.00 0.00 61 1018.6
20260906093040 20 263 0.0 0.0 0.00 0.00 0.00 61 1018.6
20260906092539 20 263 0.0 0.0 0.00 0.00 0.00 61 1018.4
20260906092017 20 263 0.0 0.0 0.00 0.00 0.00 60 1018.3
20260906091517 20 263 0.0 0.0 0.00 0.00 0.00 60 1018.1
20260906091022 20 263 0.0 1.6 0.00 0.00 0.00 60 1018.0
20260906090521 20 263 0.0 3.2 0.00 0.00 0.00 60 1017.9
20260906090027 20 263 0.0 3.2 0.00 0.00 0.00 60 1017.7
20260906085526 20 263 0.0 0.0 0.00 0.00 0.00 60 1017.7
20260906085025 20 263 0.0 0.0 0.00 0.00 0.00 59 1017.8
20260906084530 20 263 0.0 0.0 0.00 0.00 0.00 59 1017.8
20260906084029 20 263 0.0 0.0 0.00 0.00 0.00 59 1017.8
20260906083513 20 263 0.0 0.0 0.00 0.00 0.00 58 1017.9
20260906083012 20 263 0.0 0.0 0.00 0.00 0.00 57 1017.9
20260906082512 20 263 0.0 0.0 0.00 0.00 0.00 56 1017.8
20260906082017 20 263 0.0 0.0 0.00 0.00 0.00 56 1017.9
20260906081516 20 263 0.0 0.0 0.00 0.00 0.00 56 1018.0
20260906081023 20 263 0.0 3.2 0.00 0.00 0.00 55 1018.0
20260906080522 20 263 0.0 3.2 0.00 0.00 0.00 54 1017.9
20260906080021 20 263 0.0 0.0 0.00 0.00 0.00 55 1017.9
20260906075547 20 263 0.0 0.0 0.00 0.00 0.00 54 1017.8
20260906075051 21 263 0.0 1.6 0.00 0.00 0.00 54 1017.8
20260906074530 21 263 0.0 1.6 0.00 0.00 0.00 54 1017.9
20260906074035 21 263 0.0 0.0 0.00 0.00 0.00 52 1017.7
20260906073514 21 263 0.0 0.0 0.00 0.00 0.00 52 1017.7
20260906073020 21 263 0.0 0.0 0.00 0.00 0.00 52 1017.8
20260906072518 21 263 0.0 0.0 0.00 0.00 0.00 52 1017.9
20260906072017 21 263 0.0 0.0 0.00 0.00 0.00 51 1017.9
20260906071542 21 263 0.0 0.0 0.00 0.00 0.00 51 1017.9
20260906071027 21 263 0.0 0.0 0.00 0.00 0.00 51 1017.9
20260906070544 21 263 0.0 0.0 0.00 0.00 0.00 51 1017.7
20260906070028 21 263 0.0 0.0 0.00 0.00 0.00 51 1017.8
20260906065526 21 263 0.0 0.0 0.00 0.00 0.00 50 1017.8
20260906065032 21 263 0.0 0.0 0.00 0.00 0.00 50 1017.9
20260906064530 21 263 0.0 0.0 0.00 0.00 0.00 51 1017.6
20260906064029 22 263 0.0 0.0 0.00 0.00 0.00 49 1017.7
20260906063533 22 263 0.0 0.0 0.00 0.00 0.00 49 1017.8
20260906063032 22 263 0.0 1.6 0.00 0.00 0.00 48 1017.9
20260906062537 22 263 0.0 3.2 0.00 0.00 0.00 47 1017.9
20260906062016 22 263 0.0 3.2 0.00 0.00 0.00 47 1017.8
20260906061513 22 263 0.0 0.0 0.00 0.00 0.00 47 1017.8
20260906061019 22 263 0.0 0.0 0.00 0.00 0.00 46 1017.7
20260906060544 22 263 0.0 0.0 0.00 0.00 0.00 45 1017.8
20260906060042 22 263 0.0 0.0 0.00 0.00 0.00 46 1017.9
20260906055524 22 263 0.0 0.0 0.00 0.00 0.00 45 1018.1
20260906055022 22 263 0.0 0.0 0.00 0.00 0.00 45 1018.3
20260906054520 23 263 0.0 0.0 0.00 0.00 0.00 45 1018.3
20260906054025 23 263 0.0 0.0 0.00 0.00 0.00 45 1018.2
20260906053550 23 263 0.0 0.0 0.00 0.00 0.00 44 1018.2
20260906053047 23 263 0.0 0.0 0.00 0.00 0.00 44 1018.2
20260906052530 23 263 0.0 0.0 0.00 0.00 0.00 44 1018.2
20260906052029 23 263 0.0 0.0 0.00 0.00 0.00 44 1018.0
20260906051534 23 263 0.0 1.6 0.00 0.00 0.00 44 1017.9
20260906051013 23 263 0.0 1.6 0.00 0.00 0.00 44 1017.9
20260906050533 23 263 0.0 0.0 0.00 0.00 0.00 44 1017.8
20260906050038 23 263 0.0 0.0 0.00 0.00 0.00 44 1017.6
20260906045516 23 263 0.0 0.0 0.00 0.00 0.00 44 1017.5
20260906045015 23 263 0.0 0.0 0.00 0.00 0.00 44 1017.6
20260906044520 23 263 0.0 0.0 0.00 0.00 0.00 43 1017.6
20260906044020 23 263 0.0 0.0 0.00 0.00 0.00 41 1017.7
20260906043526 23 263 0.0 0.0 0.00 0.00 0.00 41 1017.8
20260906043023 23 263 0.0 1.6 0.00 0.00 0.00 41 1017.9
20260906042522 24 263 0.0 1.6 0.00 0.00 0.00 42 1017.8
20260906042029 24 263 0.0 0.0 0.00 0.00 0.00 41 1017.7
20260906041527 24 263 0.0 0.0 0.00 0.00 0.00 43 1017.3
20260906041034 24 263 0.0 1.6 0.00 0.00 0.00 40 1017.0
20260906040533 25 263 0.0 0.0 0.00 0.00 0.00 39 1016.9
20260906040031 25 263 0.0 1.6 0.00 0.00 0.00 38 1016.9
20260906035537 25 263 0.0 3.2 0.00 0.00 0.00 39 1016.7
20260906035021 25 263 1.6 3.2 0.00 0.00 0.00 39 1016.5
20260906034519 25 263 0.0 1.6 0.00 0.00 0.00 38 1016.7
20260906034018 25 263 0.0 0.0 0.00 0.00 0.00 37 1016.6
20260906033543 25 263 0.0 0.0 0.00 0.00 0.00 37 1016.6
20260906033029 26 263 0.0 0.0 0.00 0.00 0.00 36 1016.6
20260906032545 26 263 0.0 0.0 0.00 0.00 0.00 35 1016.6
20260906032030 26 263 0.0 0.0 0.00 0.00 0.00 35 1016.6
20260906031524 26 263 0.0 0.0 0.00 0.00 0.00 35 1016.6
20260906031028 26 263 0.0 0.0 0.00 0.00 0.00 34 1016.5
20260906030552 26 263 0.0 0.0 0.00 0.00 0.00 34 1016.4
20260906030031 26 263 0.0 0.0 0.00 0.00 0.00 34 1016.3
20260906025529 26 263 0.0 0.0 0.00 0.00 0.00 34 1016.1
20260906025034 26 263 0.0 0.0 0.00 0.00 0.00 34 1016.0
20260906024513 26 263 0.0 0.0 0.00 0.00 0.00 33 1015.9
20260906024039 26 263 0.0 1.6 0.00 0.00 0.00 34 1015.8
20260906023517 26 263 0.0 1.6 0.00 0.00 0.00 34 1015.8
20260906023037 27 263 0.0 0.0 0.00 0.00 0.00 34 1015.7
20260906022523 27 263 0.0 0.0 0.00 0.00 0.00 33 1015.8
20260906022022 27 263 0.0 0.0 0.00 0.00 0.00 33 1015.8
20260906021519 27 263 0.0 0.0 0.00 0.00 0.00 32 1015.9
20260906021018 27 263 0.0 0.0 0.00 0.00 0.00 32 1015.8
20260906020523 27 263 0.0 0.0 0.00 0.00 0.00 32 1015.7
20260906020021 27 263 0.0 3.2 0.00 0.00 0.00 32 1015.7
20260906015526 27 263 0.0 3.2 0.00 0.00 0.00 31 1015.6
20260906015025 27 263 0.0 4.8 0.00 0.00 0.00 31 1015.5
20260906014551 27 263 1.6 6.4 0.00 0.00 0.00 31 1015.4
20260906014029 28 265 3.2 6.4 0.00 0.00 0.00 31 1015.4
20260906013535 28 263 3.2 6.4 0.00 0.00 0.00 30 1015.3
20260906013014 28 261 3.2 6.4 0.00 0.00 0.00 30 1015.2
20260906012513 28 261 3.2 8.0 0.00 0.00 0.00 30 1015.3
20260906012039 28 269 3.2 8.0 0.00 0.00 0.00 29 1015.4
20260906011517 28 270 1.6 6.4 0.00 0.00 0.00 28 1015.4
20260906011017 29 266 3.2 6.4 0.00 0.00 0.00 28 1015.4
20260906010524 29 272 1.6 6.4 0.00 0.00 0.00 28 1015.4
20260906010024 30 273 4.8 8.0 0.00 0.00 0.00 28 1015.4
20260906005522 30 270 4.8 9.7 0.00 0.00 0.00 27 1015.5
20260906005027 30 257 4.8 9.7 0.00 0.00 0.00 27 1015.4
20260906004525 30 275 1.6 4.8 0.00 0.00 0.00 27 1015.5
20260906004032 30 259 0.0 6.4 0.00 0.00 0.00 27 1015.5
20260906003531 30 259 1.6 8.0 0.00 0.00 0.00 27 1015.5
20260906003058 30 263 3.2 8.0 0.00 0.00 0.00 26 1015.6
20260906002536 30 269 3.2 8.0 0.00 0.00 0.00 26 1015.6
20260906002021 30 259 4.8 8.0 0.00 0.00 0.00 25 1015.5
20260906001521 30 261 3.2 8.0 0.00 0.00 0.00 26 1015.5
20260906001020 30 277 1.6 8.0 0.00 0.00 0.00 26 1015.5
20260906000527 30 312 1.6 6.4 0.00 0.00 0.00 26 1015.6
20260906000026 31 288 1.6 8.0 0.00 0.00 0.00 25 1015.6
20260905235532 31 292 3.2 8.0 0.00 0.00 0.00 25 1015.6
20260905235032 31 265 1.6 6.4 0.00 0.00 0.00 26 1015.6
20260905234558 31 282 1.6 6.4 0.00 0.00 0.00 25 1015.5
20260905234036 31 285 1.6 8.0 0.00 0.00 0.00 25 1015.4
20260905233530 32 281 4.8 8.0 0.00 0.00 0.00 24 1015.4
20260905233052 32 325 0.0 1.6 0.00 0.00 0.00 25 1015.3
20260905232550 32 325 0.0 1.6 0.00 0.00 0.00 25 1015.3
20260905232033 32 325 0.0 3.2 0.00 0.00 0.00 24 1015.2
20260905231530 32 325 0.0 3.2 0.00 0.00 0.00 22 1015.2
20260905231036 32 325 0.0 1.6 0.00 0.00 0.00 23 1015.1
20260905230515 32 325 0.0 3.2 0.00 0.00 0.00 23 1015.1
20260905230015 33 325 0.0 4.8 0.00 0.00 0.00 23 1015.0
20260905225513 33 324 0.0 4.8 0.00 0.00 0.00 22 1015.0
20260905225020 33 126 0.0 1.6 0.00 0.00 0.00 22 1014.9
20260905224517 33 126 0.0 1.6 0.00 0.00 0.00 21 1015.0
20260905224023 33 126 0.0 1.6 0.00 0.00 0.00 20 1015.0
20260905223522 33 126 0.0 1.6 0.00 0.00 0.00 21 1015.0
20260905223020 33 126 0.0 1.6 0.00 0.00 0.00 20 1015.0
20260905222547 33 126 0.0 4.8 0.00 0.00 0.00 20 1015.0